www.pogodaiklimat.ru

Погода и климат >> Архив погоды >> Бахрейн >> Бахрейн


АРХИВ ПОГОДЫ в Бахрейне

Время (UTC), дата Ветер
(напр.,м/с)
 
Видим.   Явления Облачность Т
(С)
Тd
(С)
f
(%)
Тe
(С)
Тes
(С)
Комфортность P
(гПа)
Po
(гПа)
Тmin
(С)
Tmax
(С)
R
(мм)
R24
(мм)
S
(см)
09 14.01 Ю 5 12 км 9/0
[Ci sp]
+22.1 +15.8 67 +26 +31 душно 1016.7 1017.0
12 14.01 ЮВ 5 12 км 9/0
[Ci sp]
+24.9 +12.7 47 +27 +28 жарко 1015.1 1015.0
15 14.01 ЮВ 6 12 км 5/0
[Ci sp]
+21.6 +16.0 70 +25 +25 комфорт 1015.7 1016.0
18 14.01 ЮВ 6 12 км 5/0
[Ci sp]
+20.1 +15.8 76 +22 +22 комфорт 1017.4 1017.0 +25.0
21 14.01 ЮВ 6 12 км 6/0
[Ci sp]
+19.9 +16.2 79 +22 +22 комфорт 1017.0 1017.0
00 15.01 ЮВ 4 12 км 5/0
[Ci sp]
+20.2 +16.3 78 +23 +23 комфорт 1016.9 1017.0
03 15.01 ЮВ 5 12 км 5/0
[Ci sp]
+20.6 +16.1 75 +24 +24 комфорт 1017.7 1018.0
06 15.01 ЮВ 6 12 км 8/0
[Cs]
+22.5 +18.0 76 +28 +29 душно 1019.5 1020.0 +19.4
09 15.01 Ю 4 12 км 9/0
[Cs]
+24.4 +16.8 63 +28 +34 душно 1017.5 1018.0
12 15.01 Ю 3 12 км 10/0
[Cs]
+26.6 +13.6 45 +29 +31 жарко 1016.5 1017.0
15 15.01 В 5 9000 м мгла 10/0
[Cs]
+21.8 +18.1 80 +27 +27 душно 1017.3 1017.0
18 15.01 ЮВ 5 10 км мгла 10/0
[Cs]
+21.1 +17.8 81 +25 +25 комфорт 1018.2 1018.0 +27.0
21 15.01 ЮВ 4 12 км ясно +21.6 +16.0 70 +25 +25 комфорт 1017.0 1017.0
00 16.01 ЮВ 4 12 км ясно +21.2 +16.0 72 +25 +25 комфорт 1016.4 1016.0
03 16.01 Ю 2 12 км ясно +20.3 +16.2 77 +24 +24 комфорт 1016.1 1016.0
06 16.01 Ю 3 12 км 1/0
[Ac trans]
+23.1 +16.0 64 +28 +32 душно 1018.0 1018.0 +20.0
09 16.01 Ю 4 12 км ясно +24.9 +16.7 60 +28 +36 жарко 1016.0 1016.0
12 16.01 Ю 5 12 км 1/0
[Ci fib]
+27.2 +12.7 41 +29 +31 жарко 1013.3 1013.0
15 16.01 В 4 9000 м мгла 4/0
[Ac trans]
+22.1 +17.9 77 +27 +27 душно 1012.9 1013.0
18 16.01 ЮВ 6 10 км мгла ясно +22.2 +15.9 67 +26 +26 душно 1013.3 1013.0 +27.6
21 16.01 ЮВ 5 12 км 4/0
[Ac trans]
+21.2 +16.7 75 +25 +25 комфорт 1012.8 1013.0
00 17.01 ЮВ 8 12 км 5/0
[Ac trans]
+21.2 +17.3 78 +25 +25 комфорт 1010.9 1011.0
03 17.01 ЮВ 6 9000 м мгла 9/0
[Ac trans Ci fib]
+20.6 +16.7 78 +24 +24 комфорт 1011.8 1012.0
06 17.01 Ю 4 12 км 6/0
[Ac trans]
+21.9 +16.9 73 +26 +29 душно 1014.5 1015.0 +20.6
09 17.01 СЗ 13 600 м пыльная буря ?/? +23.2 +8.7 40 +25 +25 комфорт 1014.4 1014.0
12 17.01 СЗ 14 1000 м пыльная буря {метель} 9/0
[Ac trans]
+20.1 +6.9 42 +20 +20 тепло 1015.3 1015.0
15 17.01 СЗ 11 1200 м пыльный позёмок 3/0
[Ac trans]
+19.1 +3.8 36 +18 +18 тепло 1017.4 1017.0
18 17.01 СЗ 9 3400 м пыль {метель} ясно +17.8 +3.4 38 +17 +17 тепло 1019.1 1019.0 +25.3
21 17.01 СЗ 8 3000 м пыль ясно +17.1 +5.8 47 +16 +16 по сезону 1019.5 1020.0
00 18.01 СЗ 8 3000 м пыль ясно +16.5 +5.5 48 +15 +15 по сезону 1019.2 1019.0
03 18.01 СЗ 9 3000 м пыль ясно +15.7 +7.3 57 +14 +14 по сезону 1019.6 1020.0
06 18.01 З 8 3500 м пыль ясно +16.9 +7.6 54 +16 +16 по сезону 1021.3 1021.0 +15.5
09 18.01 СЗ 9 4000 м пыль ясно +18.5 +5.8 43 +18 +19 тепло 1020.1 1020.0
12 18.01 СЗ 9 2500 м пыль 3/0
[Ci fib]
+18.1 +7.0 48 +17 +17 по сезону 1018.4 1018.0
15 18.01 СЗ 9 3500 м пыль 3/0
[Ci fib]
+16.6 +6.5 51 +15 +15 по сезону 1019.5 1020.0
18 18.01 СЗ 8 5000 м пыль ясно +16.3 +6.2 51 +15 +15 по сезону 1020.3 1020.0 +19.0
21 18.01 СЗ 8 5000 м пыль 8/0
[Ac trans]
+16.2 +6.7 53 +15 +15 по сезону 1019.7 1020.0
00 19.01 СЗ 9 5000 м пыль 6/0
[Ac trans]
+16.1 +6.9 54 +14 +14 по сезону 1019.4 1019.0
03 19.01 СЗ 9 5000 м пыль 4/4 1200 м
[Sc]
+15.7 +6.5 54 +14 +14 по сезону 1020.5 1021.0
06 19.01 СЗ 8 8000 м пыль 3/3 1000 м
[]
+16.9 +5.2 46 +16 +16 по сезону 1022.5 1023.0 +15.1
09 19.01 СЗ 9 9000 м пыль 4/4 900 м
[Sc]
+17.5 +4.9 43 +16 +17 по сезону 1021.5 1022.0
12 19.01 СЗ 9 14 км 6/6 900 м
[Sc]
+17.0 +5.1 45 +16 +16 по сезону 1020.3 1020.0
15 19.01 СЗ 8 18 км 5/5 750 м
[Sc]
+15.5 +5.5 51 +14 +14 прохладно 1021.4 1021.0
18 19.01 СЗ 9 16 км 1/1 750 м
[Sc]
+14.9 +4.9 51 +13 +13 прохладно 1022.3 1022.0 +18.0
21 19.01 СЗ 9 14 км 1/1 750 м
[Sc]
+14.8 +5.1 52 +13 +13 по сезону 1022.1 1022.0
00 20.01 СЗ 8 14 км 3/3 750 м
[Sc]
+14.4 +6.1 57 +12 +12 по сезону 1022.4 1022.0
03 20.01 СЗ 8 16 км 3/3 750 м
[Sc]
+14.5 +6.2 57 +12 +12 по сезону 1022.7 1023.0
06 20.01 З 7 16 км 3/3 750 м
[Sc]
+14.7 +8.3 65 +13 +14 по сезону 1025.0 1025.0 +14.3
09 20.01 СЗ 10 16 км 3/3 750 м
[Sc]
+16.6 +7.9 56 +15 +15 по сезону 1023.6 1024.0
12 20.01 СЗ 10 12 км 3/3 600 м
[Sc]
+17.1 +7.5 53 +16 +16 по сезону 1021.7 1022.0
15 20.01 СЗ 8 12 км 3/3 750 м
[Sc]
+15.6 +7.9 60 +14 +14 прохладно 1022.1 1022.0
18 20.01 З 7 12 км ясно +14.8 +8.8 67 +13 +13 по сезону 1023.2 1023.0 +17.4
21 20.01 З 6 12 км ясно +14.2 +8.9 70 +12 +12 по сезону 1022.6 1023.0
00 21.01 З 6 12 км ясно +13.3 +7.8 69 +11 +11 прохладно 1021.9 1022.0
03 21.01 З 6 12 км ясно +13.3 +8.2 71 +11 +11 прохладно 1022.3 1022.0
06 21.01 З 6 12 км 3/0
[Ci fib]
+14.5 +8.5 67 +13 +15 прохладно 1023.7 1024.0 +13.2

 

Местоположение метеостанции Бахрейн (Бахрейн): широта 26.27 долгота 50.65 высота над уровнем моря 2 м.

В архиве по умолчанию представлена погода в Бахрейне за последнюю неделю. Архивные данные за месяц целиком и за предыдущие месяцы, начиная с января 2011 года, Вы можете получить, выбрав интересующий диапазон дат из раскрывающегося списка и нажав кнопку "Ввод!".


*Определитесь, кто Вы:
робот инопланетянин человек

Внимание! Время в таблицах - всемирное. Для получения местного времени необходимо прибавить поправку, которая равна 4 ч.

Смотрите также архив погоды в соседних городах и на ближайших метеорологических станциях:

Погода в Дахране (Саудовская Аравия) (48 км)
Погода в Аэропорту Король Фахд (Саудовская Аравия) (85 км)
Погода в Духане (Катар) (97 км)
Погода в Дохе (Катар) (146 км)
Погода в Аэропорту Хамад (Катар) (147 км)
Погода в Аль-Ахсе (Саудовская Аравия) (159 км)
Погода в Абу Самба (Катар) (170 км)
Погода в Бендер-Дейере (Иран) (215 км)
Погода в Бушире (Иран) (299 км)
Погода в Бушир аэропорту (Иран) (302 км)

Пояснения к столбцам:

Ветер - указаны скорость ветра в м/с - средняя за 10 мин, порывы в срок и между сроками (в фигурных скобках) и направление, откуда дует ветер: С - северный, СВ - северо-восточный, В - восточный, ЮВ - юго-восточный, Ю - южный, ЮЗ - юго-западный, З - западный, СЗ - северо-западный.
Видимость - горизонтальная дальность видимости в метрах или километрах. При видимости от 1 до 10 км при отсутствии осадков обычно наблюдается дымка, при ухудшении видимости до 1 км и менее - туман. В сухую погоду видимость может ухудшаться дымом, пылью или мглою.
Явления - указаны атмосферные явления, наблюдавшиеся в срок или в последний час перед сроком; фигурными скобками обозначены явления, наблюдавшиеся между сроками (за 1-3 часа до срока); квадратными скобками обозначены град или гололедные отложения с указанием их диаметра в мм.
Облачность - указаны через наклонную черту общая и нижняя облачность в баллах и высота нижней границы облаков в метрах; квадратными скобками обозначены формы облаков: Ci - перистые, Cs - перисто-слоистые, Cc - перисто-кучевые, Ac - высококучевые, As - высокослоистые, Sc - слоисто-кучевые, Ns - слоисто-дождевые, Cu - кучевые, Cb - кучево-дождевые. Подробнее классификацию облаков см. в Атласе облаков (PDF).
T - Температура воздуха - температура, измеренная на высоте 2 м над землей.
Td - Температура точки росы - температура, при понижении до которой содержащийся в воздухе водяной пар достигнет насыщения.
f - Относительная влажность воздуха - влажноcть воздуха, измеренная на высоте 2 м над землей.
Te - Эффективная температура - температура, которую ощущает одетый по сезону человек в тени. Характеристика душности погоды. При расчете учитывается влияние влажности воздуха и скорости ветра на теплоощущения человека.
Tes - Эффективная температура на солнце - температура, которую ощущает человек, с поправкой на солнечный нагрев. Характеристика знойности погоды. Зависит от высоты солнца над горизонтом, облачности и скорости ветра. Ночью, в пасмурную погоду, а также при ветре 12 м/с и более поправка равна нулю.
P - Атмосферное давление - приведенное к уровню моря атмосферное давление.
Po - Атмосферное давление - измеренное на уровне метеостанции атмосферное давление.
Tmin - Минимальная температура - минимум температуры воздуха на высоте 2 м над землей.
Tmax - Максимальная температура - максимум температуры воздуха на высоте 2 м над землей.
R - Количество осадков - Количество выпавших осадков за период времени, мм. При наведении курсора мыши на число - период времени, за который выпало указанное количество осадков.
R24 - Количество осадков - Количество выпавших осадков за 24 часа, мм.
S - Снежный покров - Высота снежного покрова, см. При наведении курсора мыши на число - состояние снежного покрова и степень покрытия местности в баллах.